Location: Le Hiès Ruisseau
(43.3000°N, 0.4500°W)
Time: 21:51:12
(UTC+00:00)

Lacrosse 5 - Pass Details

Date: 28 January 2023
Orbit: 714 x 724 km, 57.0° (Epoch: 09 March)

Event Time Altitude Azimuth Distance (km) Brightness Sun altitude
Rises 18:35:28 0° 187° (S) 3,118 5.4 -16.0°
Reaches altitude 10° 18:38:16 10° 173° (S) 2,203 4.4 -16.5°
Maximum altitude 18:42:10 23° 122° (ESE) 1,525 3.1 -17.2°
Enters shadow 18:42:20 23° 119° (ESE) 1,527 3.1 -17.2°
